This is the latest recevied weather packets stored in our database for station/object N4ZIQ. If no packets are shown the sender has not sent any weather packets the latest 10 day(s).
| Time | Temp. | Humidity | Pressure | Rain* | Wind** | Luminosity | Snow |
|---|---|---|---|---|---|---|---|
| 1777669546 | 32.78° C | 44% | 1009.2 hPa | 0 mm | - | 357 W/m² | - |
| 1777669251 | 32.78° C | 46% | 1009.4 hPa | 0 mm | - | 534 W/m² | - |
| 1777668946 | 32.22° C | 46% | 1009.6 hPa | 0 mm | - | 487 W/m² | - |
| 1777668646 | 32.22° C | 44% | 1009.4 hPa | 0 mm | - | 404 W/m² | - |
| 1777668352 | 32.78° C | 43% | 1009.4 hPa | 0 mm | - | 619 W/m² | - |
| 1777668045 | 32.78° C | 44% | 1009.4 hPa | 0 mm | - | 543 W/m² | - |
| 1777667745 | 32.22° C | 46% | 1009.4 hPa | 0 mm | - | 661 W/m² | - |
| 1777667449 | 32.22° C | 46% | 1009.3 hPa | 0 mm | - | 450 W/m² | - |
| 1777667147 | 32.22° C | 47% | 1009.4 hPa | 0 mm | - | 566 W/m² | - |
| 1777666848 | 32.22° C | 46% | 1009.6 hPa | 0 mm | - | 566 W/m² | - |
| 1777666552 | 32.22° C | 45% | 1009.7 hPa | 0 mm | - | 649 W/m² | - |
| 1777666249 | 32.22° C | 48% | 1009.8 hPa | 0 mm | - | 689 W/m² | - |
| 1777665947 | 32.22° C | 47% | 1009.8 hPa | 0 mm | - | 633 W/m² | - |
| 1777665652 | 32.22° C | 47% | 1009.9 hPa | 0 mm | - | 703 W/m² | - |
| 1777665346 | 32.22° C | 47% | 1010 hPa | 0 mm | - | 731 W/m² | - |
| 1777665046 | 31.67° C | 49% | 1010.2 hPa | 0 mm | - | 397 W/m² | - |
| 1777664759 | 31.67° C | 49% | 1010.4 hPa | 0 mm | - | 204 W/m² | - |
| 1777664447 | 32.22° C | 47% | 1010.5 hPa | 0 mm | - | 174 W/m² | - |
| 1777664146 | 32.22° C | 49% | 1010.6 hPa | 0 mm | - | 179 W/m² | - |
| 1777663851 | 31.67° C | 50% | 1010.7 hPa | 0 mm | - | 531 W/m² | - |
| 1777663545 | 31.11° C | 52% | 1010.8 hPa | 0 mm | - | 272 W/m² | - |
| 1777663247 | 31.11° C | 51% | 1010.9 hPa | 0 mm | - | 213 W/m² | - |
| 1777662956 | 31.67° C | 50% | 1011.1 hPa | 0 mm | - | 236 W/m² | - |
| 1777662649 | 31.11° C | 51% | 1011.1 hPa | 0 mm | - | 276 W/m² | - |
| 1777662347 | 31.11° C | 52% | 1011.2 hPa | 0 mm | - | 374 W/m² | - |
* Rain latest hour (hover to see other rain measurements)
** Current wind speed in m/s (hover to see current wind gust speed)